Location: Unspecified
(0.0000°N, 0.0000°E)
Time: 03:41:47
(UTC+00:00)

CZ-6A DEB - Pass Details

Date: 15 October 2025
Orbit: 818 x 870 km, 98.8° (Epoch: 17 November)

Event Time Altitude Azimuth Distance (km) Brightness Sun altitude
Rises 18:45:25 0° 198° (SSW) 3,370 ? -14.8°
Reaches altitude 10° 18:48:31 10° 216° (SW) 2,443 ? -15.5°
Maximum altitude 18:52:02 18° 257° (WSW) 1,959 ? -16.4°
Drops below altitude 10° 18:55:35 10° 298° (WNW) 2,459 ? -17.3°
Sets 18:58:44 0° 317° (NW) 3,402 ? -18.0°
